Location: Big Tree
(37.5099°N, 119.6021°W)
Time: 18:27:01
(UTC+00:00)

DMSP B5D2-2 - Pass Details

Date: 05 August 2024
Orbit: 787 x 802 km, 98.3° (Epoch: 11 September)

Event Time Altitude Azimuth Distance (km) Brightness Sun altitude
Rises 12:06:19 0° 178° (S) 3,277 7.0 -11.5°
Reaches altitude 10° 12:08:41 10° 184° (S) 2,349 6.2 -11.1°
Maximum altitude 12:13:44 52° 260° (W) 974 4.2 -10.2°
Drops below altitude 10° 12:18:48 10° 337° (NNW) 2,357 6.6 -9.3°
Sets 12:21:12 0° 342° (NNW) 3,289 7.4 -8.9°
